User: anonymous   Login
Location: Unspecified
(0.0000°N, 0.0000°E)
Time: 07:34:46
(UTC+00:00)
Language:

Snapshot - Orbit

View from above orbital plane
View from above orbital plane
View from above satellite
View from above satellite

Ground track
Ground track

The orbit data is extracted from the following two-line orbital elements,

1  1314U 65027A   19230.77499814 +.00000040 +00000-0 +12492-3 0  9998
2  1314 090.3047 306.7552 0029032 316.4280 159.2057 12.91757002308983
Epoch (UTC): 18 August 2019 18:35:59
Eccentricity: 0.0029032
inclination: 90.3047°
perigee height: 1272 km
apogee height: 1317 km
right ascension of ascending node: 306.7552°
argument of perigee: 316.4280°
revolutions per day: 12.91757002
mean anomaly at epoch: 159.2057°
orbit number at epoch: 30898

The dashed part of the orbit path shows where the satellite is in the earth's shadow,  

DLR